Weather in Wakayama

Japan     34°12′55″N   135°10′07″E
temp.,
°C
wind,
m/s
gust,
m/s
humid.,
%
clouds,
%
prec.,
mm/h
press.,
hPa
HPBL,
m
8 december, wed
wed800:00+11n6118499 0.3 1019735
03:00+11n71288100 1.6 10201161
06:00+10n9147679 0.5 10221299
09:00+10n71270100 0.6 10241572
12:00+11n8116190 0.1 10241721
15:00+11n812577 0.1 10251648
18:00+10n7116233 0.0 10271076
21:00+10n6116487 0.0 10281311
9 december, thu
thu900:00+9n6106922 0.0 1028797
03:00+9nne510714 0.0 1027626
06:00+7ne36782 0.0 1028196
09:00+10ne26696 0.0 1029618
12:00+13nne45565 0.0 10281102
15:00+14nne34530 0.0 1026867
18:00+10ene22680 0.0 102772
21:00+9ese127548 0.0 102849
10 december, fri
fri1000:00+8se2275100 0.0 102741
03:00+9se1175100 0.0 102633
06:00+8e1176100 0.0 102629
09:00+11e1171100 0.0 1026140
12:00+14wnw225936 0.0 1025737
15:00+14nw23570 0.0 1024844
18:00+10ene11740 0.0 102583
21:00+9e12800 0.0 102660
11 december, sat
sat1100:00+8e11780 0.0 102539
03:00+8ese11780 0.0 102550
06:00+8e11840 0.0 102585
09:00+11ene117442 0.0 1026152
12:00+14nnw3458100 0.0 10251044
15:00+14n345997 0.0 1024787
18:00+10ne117413 0.0 102559
21:00+9ese227894 0.0 102547
12 december, sun
sun1200:00+9ese217793 0.0 102433
03:00+8se117693 0.0 102327
06:00+8se217475 0.0 102230
09:00+11sse116559 0.0 1022118
12:00+15w225811 0.0 1020806
15:00+15w135483 0.0 1018857
18:00+13wnw17689 0.1 1018341
21:00+13w610675 0.1 1018728